Regional Weather Roundup
Issued by NWS Cleveland, OH

Home | Current Version | Previous Version | Graphics & Text | Print | Product List | Glossary On
Versions: 1 2 3 4 5 6 7 8 9 10 11 12 13 14 15 16 17 18 19 20 21 22 23 24 25 26 27 28 29 30 31 32 33 34 35 36 37 38 39 40 41 42 43 44 45 46 47 48 49 50
000
ASUS41 KCLE 021710
RWRCLE
OHIO REGIONAL WEATHER ROUNDUP
NATIONAL WEATHER SERVICE WILMINGTON, OH
100 PM EDT TUE JUN 02 2015

NOTE: "FAIR" INDICATES FEW OR NO CLOUDS BELOW 12,000 FEET WITH NO
SIGNIFICANT WEATHER AND/OR OBSTRUCTIONS TO VISIBILITY.

OHZ001>008-015>018-024>027-034-035-043-044-021800-
   NORTHWEST OHIO

CITY           SKY/WX    TMP DP  RH WIND       PRES   REMARKS
DEFIANCE       PTSUNNY   66  51  58 NE8       30.19F
FINDLAY        MOSUNNY   65  51  60 NE15      30.17S
TOLEDO EXPRESS MOSUNNY   65  49  56 NE15G22   30.20R
TOLEDO EXEC    MOSUNNY   64  51  62 NE14      30.21S
LIMA           CLOUDY    62  53  72 NE10      30.17F
$$

OHZ009>014-019>023-028>033-038-089-021800-
   NORTHEAST OHIO

CITY           SKY/WX    TMP DP  RH WIND       PRES   REMARKS
CLE-HOPKINS    MOSUNNY   63  51  65 NE16      30.20S
CLE-LAKEFRONT  SUNNY     59  51  75 NE23G30   30.18S
CUY CO. ARPT   MOSUNNY   63 N/A N/A NE14      30.18F
LORAIN-ELYRIA  SUNNY     61  51  70 NE17G24   30.19S
ASHTABULA      MOSUNNY   60  50  69 N7G17     30.19F
AKRON-CANTON   CLOUDY    59  50  72 NE6       30.17S
WOOSTER        CLOUDY    62  52  69 VRB3      30.18S
MANSFIELD      CLOUDY    61  51  70 N10       30.17S
YOUNGSTOWN     CLOUDY    62  51  67 NE8G18    30.17S
$$

OHZ042-051>053-060>062-070>072-077>081-021800-
  SOUTHWEST OHIO

CITY           SKY/WX    TMP DP  RH WIND       PRES   REMARKS
CINC-COVINGTON CLOUDY    58  50  75 N8        30.16S
CINC-LUNKEN    CLOUDY    57  50  77 NE6       30.17S
HAMILTON       CLOUDY    57  50  77 NE6       30.18S
DAYTON         CLOUDY    56  51  84 NE10      30.18S
WRIGHT-PAT AFB CLOUDY    56  50  79 NE6       30.17S
DAYTON GENERAL CLOUDY    56  50  80 NE8       30.16F
WILMINGTON     CLOUDY    56  49  77 NE9       30.16S
$$

OHZ036-037-039>041-045>050-054>059-063>069-073>076-082>088-021800-
  CENTRAL AND SOUTHEAST OHIO

CITY           SKY/WX    TMP DP  RH WIND       PRES   REMARKS
COLUMBUS       CLOUDY    59  51  75 NE6       30.16S
OSU AIRPORT    CLOUDY    59  50  72 E7        30.16F
BOLTON FIELD     N/A     57  52  82 N5        30.17S
RICKENBACK AFB CLOUDY    58  51  76 NE8       30.16S
NEWARK         CLOUDY    59  50  72 VRB6      30.16S
MARION         CLOUDY    62  52  69 E12       30.17F
LANCASTER      CLOUDY    59  52  77 NE9       30.16S
ZANESVILLE     CLOUDY    59  50  72 N8        30.15S
NEW PHILLY     CLOUDY    59  50  72 N6        30.17S
$$



USA.gov is the U.S. government's official web portal to all federal, state and local government web resources and services.